TimeEDT,TemperatureF,Dew PointF,Humidity,Sea Level PressureIn,VisibilityMPH,Wind Direction,Wind SpeedMPH,Gust SpeedMPH,PrecipitationIn,Events,Conditions,WindDirDegrees,DateUTC
12:52 AM,72.0,59.0,64,30.22,10.0,SW,9.2,-,N/A,,Clear,230,2013-08-26 04:52:00
1:52 AM,72.0,59.0,64,30.22,10.0,SW,9.2,-,N/A,,Clear,230,2013-08-26 05:52:00
2:52 AM,72.0,57.9,61,30.20,10.0,WSW,8.1,-,N/A,,Clear,240,2013-08-26 06:52:00
3:52 AM,73.0,59.0,61,30.18,10.0,SW,12.7,-,N/A,,Clear,230,2013-08-26 07:52:00
4:52 AM,72.0,59.0,64,30.17,10.0,SW,10.4,-,N/A,,Clear,230,2013-08-26 08:52:00
5:52 AM,72.0,60.1,66,30.16,10.0,SW,10.4,-,N/A,,Clear,230,2013-08-26 09:52:00
6:52 AM,71.1,57.9,63,30.16,10.0,WSW,6.9,-,N/A,,Scattered Clouds,250,2013-08-26 10:52:00
7:52 AM,71.1,57.0,61,30.15,10.0,WSW,6.9,-,N/A,,Overcast,250,2013-08-26 11:52:00
8:52 AM,72.0,57.0,59,30.15,10.0,WSW,5.8,-,N/A,,Scattered Clouds,250,2013-08-26 12:52:00
9:52 AM,72.0,59.0,64,30.12,10.0,SW,11.5,-,N/A,,Overcast,230,2013-08-26 13:52:00
10:52 AM,73.9,60.1,62,30.11,10.0,SW,12.7,-,N/A,,Mostly Cloudy,230,2013-08-26 14:52:00
11:52 AM,77.0,61.0,58,30.08,10.0,SW,12.7,-,N/A,,Scattered Clouds,230,2013-08-26 15:52:00
12:52 PM,78.1,63.0,60,30.06,10.0,SW,13.8,-,N/A,,Partly Cloudy,230,2013-08-26 16:52:00
1:52 PM,77.0,64.0,64,30.03,10.0,SW,13.8,-,N/A,,Overcast,230,2013-08-26 17:52:00
2:52 PM,75.9,66.0,71,30.01,10.0,WSW,8.1,-,0.00,,Mostly Cloudy,240,2013-08-26 18:52:00
3:52 PM,78.1,64.9,64,29.99,10.0,WSW,6.9,-,0.00,,Mostly Cloudy,250,2013-08-26 19:52:00
4:52 PM,78.1,64.9,64,29.96,10.0,WSW,6.9,-,N/A,,Partly Cloudy,240,2013-08-26 20:52:00
5:52 PM,75.0,66.9,76,29.98,3.0,West,4.6,-,0.00,Rain,Light Rain,270,2013-08-26 21:52:00
6:52 PM,73.9,69.1,85,29.95,6.0,Calm,Calm,-,0.01,,Haze,0,2013-08-26 22:52:00
7:52 PM,73.9,69.1,85,29.95,9.0,Calm,Calm,-,N/A,,Overcast,0,2013-08-26 23:52:00
8:52 PM,73.9,70.0,87,29.96,4.0,WSW,3.5,-,0.01,Rain,Light Rain,240,2013-08-27 00:52:00
8:57 PM,73.4,69.8,88,29.96,1.8,WSW,3.5,-,0.02,Rain,Heavy Rain,250,2013-08-27 00:57:00
9:21 PM,71.6,69.8,94,29.94,3.0,East,4.6,-,0.20,Rain,Rain,90,2013-08-27 01:21:00
9:52 PM,72.0,70.0,93,29.95,3.0,South,3.5,-,0.21,Rain,Rain,190,2013-08-27 01:52:00
10:52 PM,73.0,70.0,90,29.94,6.0,WSW,5.8,-,0.03,Rain,Light Rain,240,2013-08-27 02:52:00
11:52 PM,72.0,70.0,93,29.91,10.0,Calm,Calm,-,0.03,,Partly Cloudy,0,2013-08-27 03:52:00